Location: Mansfield Dam
(30.3944°N, 97.9097°W)
Time: 01:59:32
(UTC-06:00)

Daily predictions for brighter satellites

Satellite Brightness Start Highest point End
(mag) Time Altitude Azimuth Time Altitude Azimuth Time Altitude Azimuth
CZ-3 R/B 4.2 02:22:18 10° W 03:30:21 68° S 03:41:14 10° SE
CZ-3C R/B 4.4 04:16:32 44° SSW 04:19:25 47° S 05:39:22 10° ESE
ATLAS 3B CENTAUR R/B 4.2 04:46:50 17° SSE 04:48:29 20° SE 04:54:38 10° E
Cosmos 2333 Rocket 4.1 04:59:45 18° S 04:59:45 18° S 05:01:13 10° S
IUS-9 SRM-1 3.8 05:02:39 50° SSE 05:02:39 50° SSE 05:05:32 10° ESE
DELTA 2 R/B (1) 4.1 05:04:53 55° ENE 05:04:53 55° ENE 05:09:10 10° ENE
Cosmos 2233 Rocket 3.9 05:15:38 10° S 05:21:51 89° W 05:28:10 10° N
Cosmos 304 Rocket 4.4 05:22:03 37° NNE 05:23:33 52° ENE 05:28:12 10° SSE
Cosmos 2227 4.4 05:20:39 10° S 05:26:13 70° ESE 05:31:48 10° NNE
CZ-3 Stage 3 1.7 05:28:58 85° WNW 05:29:05 89° N 05:39:44 10° E
Cosmos 1500 Rocket 4.0 05:28:40 32° NNE 05:30:32 60° E 05:34:56 10° SSE
Cosmos 2237 Rocket 3.4 05:38:03 26° SW 05:38:03 26° SW 05:41:01 10° SSW
OAO 2 Rocket 3.4 05:38:34 53° NNW 05:39:06 56° N 05:43:56 10° E
Thor Agena Rocket 3.6 05:36:32 10° S 05:41:40 58° WSW 05:42:30 51° WNW
SL-16 R/B 2.1 05:39:13 35° NNW 05:41:46 84° WSW 05:47:25 10° SSE
ISS -1.8 05:41:57 30° NE 05:41:57 30° NE 05:44:49 10° ESE
Cosmos 2346 Rocket 4.3 05:39:09 10° N 05:45:15 89° ENE 05:51:18 10° S
Cosmos 1816 Rocket 4.5 05:43:56 13° NNW 05:49:25 57° W 05:55:27 10° SSW
SWIFT 4.3 05:52:32 16° SSW 05:53:32 17° S 05:56:21 10° SSE
Meteor 1-28 Rocket 4.2 05:52:54 10° SSE 05:56:30 46° ENE 06:00:06 10° N
Gbstr 26 Del rocket 4.0 05:52:11 10° SSW 05:57:01 61° SE 06:03:03 10° NE
Delta 198 4.4 05:56:27 25° SSW 05:57:32 31° S 06:00:57 10° ESE
Cosmos 1271 Rocket 2.6 05:55:26 10° SSW 05:59:13 61° W 06:02:59 10° N
Cosmos 2344 4.3 05:52:09 10° S 05:59:45 56° ESE 06:07:30 10° NE
SKYMED 2 3.4 05:56:05 10° SSE 06:00:25 86° WSW 06:04:45 10° NNW
Meteor 1-16 Rocket 4.2 05:58:01 10° SSW 06:03:19 52° W 06:08:32 10° N
BREEZE-M DEB (TANK) 3.7 05:53:31 16° NW 06:05:00 87° NE 06:08:54 10° SE
USA 229 DEB 4.0 06:00:49 24° NW 06:05:06 53° WSW 06:12:05 10° S
USA 229 3.9 06:00:52 24° NW 06:05:12 53° WSW 06:12:12 10° S
Atlas 2A Centaur Rocket 2.7 06:03:22 20° WSW 06:05:59 37° S 06:08:14 10° ESE
Cosmos 2058 3.1 06:02:16 10° N 06:06:23 73° E 06:10:31 10° S
Meteor 2-12 Rocket 4.4 06:00:40 10° S 06:06:48 88° W 06:12:59 10° N
DELTA 2 R/B(2) 4.5 06:10:10 34° ENE 06:10:10 34° ENE 06:11:34 10° ENE
Cosmos 2221 2.4 06:07:47 10° SSW 06:12:06 70° W 06:16:25 10° N
Meteor 1-11 4.2 06:06:54 10° N 06:12:43 83° W 06:18:29 10° S
Cosmos 1464 Rocket 3.9 06:08:59 10° S 06:15:19 75° W 06:21:37 10° N
Cosmos 1340 Rocket 2.7 06:11:38 10° N 06:15:35 88° WSW 06:19:33 10° S
Milstar 3 Cent rocket 3.7 06:06:40 10° SW 06:15:38 43° SSE 06:20:48 10° E
SL-14 R/B 3.5 06:17:06 12° NNW 06:20:42 46° W 06:24:34 10° SSW
APEX 4.5 06:19:16 10° S 06:23:32 45° ESE 06:26:56 10° NE
Tiangong 2 2.0 06:25:45 26° WNW 06:26:34 30° NNW 06:29:23 10° NE
Cosmos 1356 Rocket 3.8 06:25:05 10° N 06:29:12 66° E 06:33:21 10° SSE
SMAP 4.2 06:24:44 10° NNE 06:29:14 48° E 06:33:43 10° S
CSL-04 DEB 4.5 06:25:23 10° N 06:29:43 69° WNW 06:33:56 10° SSW
ERBS 2.3 06:33:13 14° NW 06:36:07 88° NE 06:39:31 10° SE
CSL-04 Debris 4.2 06:32:10 10° N 06:37:35 64° WNW 06:42:56 10° SSW
Cosmos 2263 Rocket 2.2 06:34:21 10° SSW 06:40:01 90° S 06:45:44 10° NNE
Cosmos 2151 3.9 06:36:48 10° NNW 06:40:23 27° W 06:43:59 10° SSW
SPOT 3 Rocket 4.4 06:38:14 10° NNE 06:43:22 57° E 06:48:29 10° S
Cosmos 1603 3.7 06:40:24 10° NNW 06:45:59 66° WSW 06:51:35 10° S
Cosmos 1908 3.1 06:42:19 10° S 06:46:07 79° W 06:49:57 10° N
IRS-1A Rocket 4.3 06:42:27 10° N 06:48:17 68° WNW 06:53:59 10° SSW
COSMO-SKYMED 1 3.8 06:45:15 10° SW 06:48:33 21° W 06:51:51 10° NW
DELTA 2 R/B (1) 4.3 06:45:41 12° WNW 06:50:27 37° NNW 06:55:35 10° NE
SJ-12 3.9 06:48:50 10° N 06:52:52 62° WNW 06:56:51 10° SSW
NOSS 3-1 (C) 4.3 06:51:16 10° NW 06:59:01 58° WSW 07:07:16 10° S
Cosmos 1726 4.0 06:55:56 10° SSE 06:59:18 36° E 07:02:42 10° NNE
CZ-2C R/B 2.2 06:55:33 10° N 07:00:03 61° WNW 07:04:33 10° SSW
Cosmos 1805 Rocket 4.0 06:56:44 10° NNW 07:00:50 40° W 07:04:55 10° SSW
Cosmos 2228 Rocket 3.0 06:56:51 10° S 07:01:17 73° W 07:05:41 10° N
CZ-4 R/B 1.7 06:57:23 10° N 07:01:19 48° WNW 07:05:18 10° SSW
IDEFIX/ARIANE 42P 2.6 06:57:38 10° N 07:02:50 61° WNW 07:08:00 10° SSW
CSL-04 Rocket 4.4 06:58:52 10° NNW 07:03:19 29° WNW 07:07:46 10° SW
Genesis I 3.8 07:00:49 10° NW 07:04:28 38° WSW 07:08:05 10° S
Ariane Rocket 4.2 07:01:51 10° NNW 07:05:37 21° WNW 07:09:22 10° WSW
